カタログに戻る

STARLINK-5569

運用中通信VLEO
NORAD 55379·PAYLOAD·🇺🇸 United States

打ち上げ Jan 26, 2023 から Cape Canaveral Space Force Station

Loading…

次のパス (今後24時間)

TLE

最新Source: CelesTrak SupGP

元期: Sep 14, 2026, 22:21 UTC

1 55379C 23013BA  26257.93173611 -.00043076  00000+0 -15600-2 0  2573
2 55379  43.0042 329.5292 0002709 277.3996  75.7787 15.27601462    13

AllMySatでSTARLINK-5569をリアルタイム追跡

Download on the App Store